Flag for U.S.A. Weather past 2 weeks in Santa Clarita, California, U.S.A.

Now
63 °F

Low clouds.


Feels Like: 63 °F
Forecast: 60 / 86 °F
Wind: 6 mph from Southeast

Location: Van Nuys Airport

Current Time: Jul 7, 2015 at 2:55:52 AM

Latest Report: Jul 7, 2015 at 1:51 AM


Visibility: 8 mi

Pressure: 29.97 "Hg

Humidity: 84%

Dew point: 58 °F

Location of Santa ClaritaLocation

Historic Weather in Santa Clarita — Graph

°F

Santa Clarita temperature yesterday

Maximum temperature yesterday: 82 °F (at 2:51 PM)
Minimum temperature yesterday: 62 °F (at 10:51 PM)
Average temperature yesterday: 69 °F

Past Weeks' High & Low Weather Summary

 TemperatureHumidityPressure
High101 °F (Jun 28, 1:51 PM)87% (Jul 5, 3:51 AM)30.04 "Hg (Jul 5, 3:51 AM)
Low62 °F (Jul 4, 5:51 AM)16% (Jun 24, 4:51 PM)29.79 "Hg (Jun 30, 8:51 PM)
Average77 °F50%29.89 "Hg
* Reported Jun 22 12:51 AM — Jul 7 12:51 AM, Santa Clarita, Weather by CustomWeather, © 2015

Note: Actual official high and low records may vary slightly from our data, if they occured in-between our weather recording intervals... More about our weather records

Advertising

Santa Clarita weather history for previous 24 hours

 ConditionsComfort  
Time TempWeatherWind HumidityBarometerVisibility
12:51 AM
Tue, Jul 7
62 °FLow clouds.6 mph86%29.98 "Hg9 mi
11:51 PM
Mon, Jul 6
62 °FLow clouds.5 mph86%29.98 "Hg10 mi
10:51 PM62 °FClear.6 mph86%29.98 "Hg10 mi
9:51 PM64 °FClear.7 mph81%29.97 "Hg10 mi
8:51 PM65 °FSunny.8 mph78%29.95 "Hg10 mi
7:51 PM69 °FSunny.8 mph68%29.94 "Hg10 mi
6:51 PM73 °FSunny.10 mph62%29.92 "Hg10 mi
5:51 PM77 °FSunny.10 mph54%29.91 "Hg10 mi
4:51 PM79 °FSunny.10 mph50%29.92 "Hg10 mi
3:51 PM80 °FSunny.12 mph49%29.93 "Hg10 mi
2:51 PM82 °FSunny.8 mph46%29.95 "Hg10 mi
1:51 PM80 °FSunny.7 mph47%29.97 "Hg10 mi
12:51 PM78 °FSunny.7 mph52%29.99 "Hg10 mi
11:51 AM73 °FSunny.No wind62%30.02 "Hg9 mi
10:51 AM70 °FPartly sunny.5 mph68%30.03 "Hg8 mi
9:51 AM67 °FOvercast.6 mph73%30.04 "Hg8 mi
8:51 AM66 °FOvercast.5 mph75%30.03 "Hg7 mi
7:51 AM66 °FOvercast.No wind75%30.02 "Hg8 mi
6:51 AM65 °FOvercast.3 mph78%30.01 "Hg8 mi
5:51 AM64 °FOvercast.5 mph81%30.00 "Hg9 mi
4:51 AM64 °FOvercast.5 mph81%29.98 "Hg9 mi
3:51 AM64 °FOvercast.3 mph81%29.98 "Hg10 mi
2:51 AM63 °FOvercast.3 mph84%29.99 "Hg10 mi
Weather by CustomWeather, © 2015

See weather overviewHow to use our weather pages